Location: *
(57.8420°S, 159.8600°W)
Time: 04:37:46
(UTC+00:00)

CZ-4B DEB - Pass Details

Date: 18 May 2021
Orbit: 841 x 860 km, 99.1° (Epoch: 20 June)

Event Time Altitude Azimuth Distance (km) Brightness Sun altitude
Exits shadow 05:31:35 - 163° (SSE) 2,608 6.6 -23.9°
Reaches altitude 10° 05:31:50 10° 163° (SSE) 2,513 6.5 -23.9°
Maximum altitude 05:37:25 85° 248° (WSW) 868 4.2 -24.7°
Drops below altitude 10° 05:42:57 10° 337° (NNW) 2,478 6.8 -25.4°
Sets 05:45:18 0° 337° (NNW) 3,406 7.6 -25.7°
